Time,TemperatureF,DewpointF,PressureIn,WindDirection,WindDirectionDegrees,WindSpeedMPH,WindSpeedGustMPH,Humidity,HourlyPrecipIn,Conditions,Clouds,dailyrainin,SoftwareType,DateUTC
2013-01-15 00:00:00,32.9,30.8,29.70,North,0,0.0,0.0,92,0.00,CLR,,0.28,WeatherDisplay:10.37,2013-01-15 00:00:00,
2013-01-15 00:05:00,32.9,30.8,29.70,North,0,0.0,0.0,92,0.00,RA,,0.00,WeatherDisplay:10.37,2013-01-15 00:05:00,
2013-01-15 00:10:00,32.9,30.8,29.70,North,0,0.0,0.0,92,0.00,RA,,0.00,WeatherDisplay:10.37,2013-01-15 00:10:00,
2013-01-15 00:15:00,33.1,31.0,29.70,North,0,0.0,0.0,92,0.00,RA,,0.00,WeatherDisplay:10.37,2013-01-15 00:15:00,
2013-01-15 00:20:00,33.3,30.9,29.70,North,0,0.0,0.0,91,0.00,RA,,0.00,WeatherDisplay:10.37,2013-01-15 00:20:00,
2013-01-15 00:25:00,33.4,31.1,29.70,North,0,0.0,0.0,91,0.00,RA,,0.00,WeatherDisplay:10.37,2013-01-15 00:25:00,
2013-01-15 00:30:00,33.4,31.1,29.70,North,0,0.0,0.0,91,0.00,RA,,0.00,WeatherDisplay:10.37,2013-01-15 00:30:00,
2013-01-15 00:35:00,33.4,31.1,29.71,North,0,0.0,0.0,91,0.00,OVC,,0.00,WeatherDisplay:10.37,2013-01-15 00:35:00,
2013-01-15 00:40:00,33.4,31.1,29.71,North,0,0.0,0.0,91,0.00,OVC,,0.00,WeatherDisplay:10.37,2013-01-15 00:40:00,
2013-01-15 00:45:00,33.6,31.3,29.71,North,0,0.0,0.0,91,0.00,OVC,,0.00,WeatherDisplay:10.37,2013-01-15 00:45:00,
2013-01-15 00:50:00,33.6,31.3,29.71,North,0,0.0,0.0,91,0.00,OVC,,0.00,WeatherDisplay:10.37,2013-01-15 00:50:00,
2013-01-15 00:55:00,33.6,31.0,29.71,North,0,0.0,0.0,90,0.00,OVC,,0.00,WeatherDisplay:10.37,2013-01-15 00:55:00,
2013-01-15 01:00:00,33.6,31.0,29.72,North,0,1.1,1.1,90,0.00,OVC,,0.00,WeatherDisplay:10.37,2013-01-15 01:00:00,
2013-01-15 01:05:00,33.6,31.0,29.72,North,0,0.0,0.0,90,0.00,OVC,,0.00,WeatherDisplay:10.37,2013-01-15 01:05:00,
2013-01-15 01:10:00,33.8,31.2,29.72,North,0,0.0,0.0,90,0.00,OVC,,0.00,WeatherDisplay:10.37,2013-01-15 01:10:00,
2013-01-15 01:15:00,33.8,30.9,29.72,North,0,0.0,0.0,89,0.00,OVC,,0.00,WeatherDisplay:10.37,2013-01-15 01:15:00,
2013-01-15 01:20:00,33.8,30.9,29.73,North,0,0.0,0.0,89,0.00,OVC,,0.00,WeatherDisplay:10.37,2013-01-15 01:20:00,
2013-01-15 01:25:00,33.8,30.9,29.73,North,0,1.3,1.3,89,0.00,OVC,,0.00,WeatherDisplay:10.37,2013-01-15 01:25:00,
2013-01-15 01:30:00,34.0,31.1,29.73,North,0,1.1,1.1,89,0.00,OVC,,0.00,WeatherDisplay:10.37,2013-01-15 01:30:00,
2013-01-15 01:35:00,34.0,31.1,29.73,North,0,3.5,3.5,89,0.00,BKN,,0.00,WeatherDisplay:10.37,2013-01-15 01:35:00,
2013-01-15 01:40:00,34.0,31.1,29.73,North,0,0.0,0.0,89,0.00,BKN,,0.00,WeatherDisplay:10.37,2013-01-15 01:40:00,
2013-01-15 01:45:00,34.0,30.8,29.74,North,0,0.0,0.0,88,0.00,BKN,,0.00,WeatherDisplay:10.37,2013-01-15 01:45:00,
2013-01-15 01:50:00,34.0,30.8,29.74,North,0,0.0,0.0,88,0.00,BKN,,0.00,WeatherDisplay:10.37,2013-01-15 01:50:00,
2013-01-15 01:55:00,34.0,30.8,29.74,North,0,0.0,0.0,88,0.00,BKN,,0.00,WeatherDisplay:10.37,2013-01-15 01:55:00,
2013-01-15 02:00:00,34.0,30.8,29.75,North,0,0.0,0.0,88,0.00,BKN,,0.00,WeatherDisplay:10.37,2013-01-15 02:00:00,
2013-01-15 02:05:00,34.0,30.8,29.75,North,0,0.0,0.0,88,0.00,BKN,,0.00,WeatherDisplay:10.37,2013-01-15 02:05:00,
2013-01-15 02:10:00,33.8,30.6,29.75,North,0,0.0,0.0,88,0.00,BKN,,0.00,WeatherDisplay:10.37,2013-01-15 02:10:00,
2013-01-15 02:15:00,33.6,30.4,29.75,North,0,0.0,0.0,88,0.00,BKN,,0.00,WeatherDisplay:10.37,2013-01-15 02:15:00,
2013-01-15 02:20:00,33.6,30.4,29.75,North,0,0.0,0.0,88,0.00,BKN,,0.00,WeatherDisplay:10.37,2013-01-15 02:20:00,
2013-01-15 02:25:00,33.6,30.4,29.75,North,0,0.0,0.0,88,0.00,BKN,,0.00,WeatherDisplay:10.37,2013-01-15 02:25:00,
2013-01-15 02:30:00,33.4,30.3,29.75,North,0,0.0,0.0,88,0.00,BKN,,0.00,WeatherDisplay:10.37,2013-01-15 02:30:00,
2013-01-15 02:35:00,33.3,30.1,29.75,North,0,0.0,0.0,88,0.00,BKN,,0.00,WeatherDisplay:10.37,2013-01-15 02:35:00,
2013-01-15 02:40:00,33.1,29.9,29.76,North,0,0.0,0.0,88,0.00,BKN,,0.00,WeatherDisplay:10.37,2013-01-15 02:40:00,
2013-01-15 02:45:00,33.1,29.9,29.76,North,0,1.1,1.1,88,0.00,BKN,,0.00,WeatherDisplay:10.37,2013-01-15 02:45:00,
2013-01-15 02:50:00,32.9,29.7,29.76,North,0,0.0,0.0,88,0.00,BKN,,0.00,WeatherDisplay:10.37,2013-01-15 02:50:00,
2013-01-15 02:55:00,32.7,29.6,29.76,North,0,0.0,0.0,88,0.00,BKN,,0.00,WeatherDisplay:10.37,2013-01-15 02:55:00,
2013-01-15 03:00:00,32.7,29.8,29.77,North,0,0.0,0.0,89,0.00,BKN,,0.00,WeatherDisplay:10.37,2013-01-15 03:00:00,
2013-01-15 03:05:00,32.5,29.7,29.77,North,0,0.0,0.0,89,0.00,BKN,,0.00,WeatherDisplay:10.37,2013-01-15 03:05:00,
2013-01-15 03:10:00,32.5,29.7,29.77,SSE,158,0.0,0.0,89,0.00,BKN,,0.00,WeatherDisplay:10.37,2013-01-15 03:10:00,
2013-01-15 03:15:00,32.4,29.5,29.77,North,0,0.0,0.0,89,0.00,BKN,,0.00,WeatherDisplay:10.37,2013-01-15 03:15:00,
2013-01-15 03:20:00,32.4,29.5,29.77,North,0,0.0,0.0,89,0.00,BKN,,0.00,WeatherDisplay:10.37,2013-01-15 03:20:00,
2013-01-15 03:25:00,32.2,29.3,29.78,North,0,0.0,0.0,89,0.00,BKN,,0.00,WeatherDisplay:10.37,2013-01-15 03:25:00,
2013-01-15 03:30:00,32.2,29.3,29.77,North,0,0.0,0.0,89,0.00,BKN,,0.00,WeatherDisplay:10.37,2013-01-15 03:30:00,
2013-01-15 03:35:00,32.2,29.3,29.78,North,0,0.0,0.0,89,0.00,BKN,,0.00,WeatherDisplay:10.37,2013-01-15 03:35:00,
2013-01-15 03:40:00,32.2,29.3,29.77,North,0,0.0,0.0,89,0.00,BKN,,0.00,WeatherDisplay:10.37,2013-01-15 03:40:00,
2013-01-15 03:45:00,32.2,29.3,29.79,North,0,0.0,0.0,89,0.00,BKN,,0.00,WeatherDisplay:10.37,2013-01-15 03:45:00,
2013-01-15 03:50:00,32.2,29.3,29.79,North,0,0.0,0.0,89,0.00,BKN,,0.00,WeatherDisplay:10.37,2013-01-15 03:50:00,
2013-01-15 03:55:00,32.0,29.1,29.79,North,0,0.0,0.0,89,0.00,BKN,,0.00,WeatherDisplay:10.37,2013-01-15 03:55:00,
2013-01-15 04:00:00,31.8,28.9,29.79,North,0,0.0,0.0,89,0.00,BKN,,0.00,WeatherDisplay:10.37,2013-01-15 04:00:00,
2013-01-15 04:05:00,31.8,28.9,29.79,North,0,0.0,0.0,89,0.00,BKN,,0.00,WeatherDisplay:10.37,2013-01-15 04:05:00,
2013-01-15 04:10:00,31.8,28.9,29.79,North,0,0.0,0.0,89,0.00,BKN,,0.00,WeatherDisplay:10.37,2013-01-15 04:10:00,
2013-01-15 04:15:00,31.8,28.9,29.79,North,0,0.0,0.0,89,0.00,BKN,,0.00,WeatherDisplay:10.37,2013-01-15 04:15:00,
2013-01-15 04:20:00,31.6,28.8,29.79,North,0,0.0,0.0,89,0.00,BKN,,0.00,WeatherDisplay:10.37,2013-01-15 04:20:00,
2013-01-15 04:25:00,31.6,29.0,29.78,North,0,0.0,0.0,90,0.00,BKN,,0.00,WeatherDisplay:10.37,2013-01-15 04:25:00,
2013-01-15 04:30:00,31.5,28.9,29.78,North,0,0.0,0.0,90,0.00,BKN,,0.00,WeatherDisplay:10.37,2013-01-15 04:30:00,
2013-01-15 04:35:00,31.3,28.7,29.79,North,0,0.0,0.0,90,0.00,FEW,,0.00,WeatherDisplay:10.37,2013-01-15 04:35:00,
2013-01-15 04:40:00,31.3,28.7,29.79,North,0,0.0,0.0,90,0.00,FEW,,0.00,WeatherDisplay:10.37,2013-01-15 04:40:00,
2013-01-15 04:45:00,31.3,28.7,29.79,North,0,0.0,0.0,90,0.00,FEW,,0.00,WeatherDisplay:10.37,2013-01-15 04:45:00,
2013-01-15 04:50:00,31.1,28.5,29.80,North,0,0.0,0.0,90,0.00,FEW,,0.00,WeatherDisplay:10.37,2013-01-15 04:50:00,
2013-01-15 04:55:00,30.9,28.3,29.80,North,0,0.0,0.0,90,0.00,FEW,,0.00,WeatherDisplay:10.37,2013-01-15 04:55:00,
2013-01-15 05:01:00,30.9,28.3,29.80,North,0,0.0,0.0,90,0.00,FEW,,0.00,WeatherDisplay:10.37,2013-01-15 05:01:00,
2013-01-15 05:02:00,30.9,28.3,29.80,North,0,0.0,0.0,90,0.00,FEW,,0.00,WeatherDisplay:10.37,2013-01-15 05:02:00,
2013-01-15 05:04:00,30.9,28.3,29.80,North,0,0.0,0.0,90,0.00,FEW,,0.00,WeatherDisplay:10.37,2013-01-15 05:04:00,
2013-01-15 05:09:00,30.9,28.3,29.80,North,0,0.0,0.0,90,0.00,FEW,,0.00,WeatherDisplay:10.37,2013-01-15 05:09:00,
2013-01-15 05:14:00,30.7,28.2,29.80,North,0,0.0,0.0,90,0.00,FEW,,0.00,WeatherDisplay:10.37,2013-01-15 05:14:00,
2013-01-15 05:19:00,30.7,28.2,29.80,North,0,0.0,0.0,90,0.00,FEW,,0.00,WeatherDisplay:10.37,2013-01-15 05:19:00,
2013-01-15 05:24:00,30.7,28.2,29.80,North,0,0.0,0.0,90,0.00,FEW,,0.00,WeatherDisplay:10.37,2013-01-15 05:24:00,
2013-01-15 05:29:00,30.7,28.2,29.81,North,0,0.0,0.0,90,0.00,FEW,,0.00,WeatherDisplay:10.37,2013-01-15 05:29:00,
2013-01-15 05:34:00,30.6,28.0,29.80,North,0,0.0,0.0,90,0.00,CLR,,0.00,WeatherDisplay:10.37,2013-01-15 05:34:00,
2013-01-15 05:39:00,30.6,28.0,29.80,North,0,0.0,0.0,90,0.00,CLR,,0.00,WeatherDisplay:10.37,2013-01-15 05:39:00,
2013-01-15 05:44:00,30.6,28.0,29.80,North,0,0.0,0.0,90,0.00,CLR,,0.00,WeatherDisplay:10.37,2013-01-15 05:44:00,
2013-01-15 05:49:00,30.4,27.8,29.80,North,0,0.0,0.0,90,0.00,CLR,,0.00,WeatherDisplay:10.37,2013-01-15 05:49:00,
2013-01-15 05:55:00,30.4,28.1,29.80,North,0,0.0,0.0,91,0.00,CLR,,0.00,WeatherDisplay:10.37,2013-01-15 05:55:00,
2013-01-15 06:00:00,30.2,27.9,29.80,North,0,0.0,0.0,91,0.00,CLR,,0.00,WeatherDisplay:10.37,2013-01-15 06:00:00,
2013-01-15 06:05:00,30.0,27.7,29.79,North,0,0.0,0.0,91,0.00,CLR,,0.00,WeatherDisplay:10.37,2013-01-15 06:05:00,
2013-01-15 06:10:00,30.0,27.7,29.80,North,0,0.0,0.0,91,0.00,CLR,,0.00,WeatherDisplay:10.37,2013-01-15 06:10:00,
2013-01-15 06:15:00,30.0,27.7,29.80,North,0,0.0,0.0,91,0.00,CLR,,0.00,WeatherDisplay:10.37,2013-01-15 06:15:00,
2013-01-15 06:20:00,30.0,27.7,29.80,North,0,0.0,0.0,91,0.00,CLR,,0.00,WeatherDisplay:10.37,2013-01-15 06:20:00,
2013-01-15 06:25:00,30.0,27.7,29.80,North,0,0.0,0.0,91,0.00,CLR,,0.00,WeatherDisplay:10.37,2013-01-15 06:25:00,
2013-01-15 06:30:00,30.0,27.7,29.80,North,0,0.0,0.0,91,0.00,CLR,,0.00,WeatherDisplay:10.37,2013-01-15 06:30:00,
2013-01-15 06:35:00,30.0,27.7,29.81,North,0,0.0,0.0,91,0.00,CLR,,0.00,WeatherDisplay:10.37,2013-01-15 06:35:00,
2013-01-15 06:40:00,30.0,27.7,29.81,North,0,0.0,0.0,91,0.00,CLR,,0.00,WeatherDisplay:10.37,2013-01-15 06:40:00,
2013-01-15 06:45:00,29.8,27.5,29.81,North,0,0.0,0.0,91,0.00,CLR,,0.00,WeatherDisplay:10.37,2013-01-15 06:45:00,
2013-01-15 06:50:00,29.8,27.5,29.81,North,0,0.0,0.0,91,0.00,CLR,,0.00,WeatherDisplay:10.37,2013-01-15 06:50:00,
2013-01-15 06:55:00,29.7,27.4,29.81,North,0,0.0,0.0,91,0.00,CLR,,0.00,WeatherDisplay:10.37,2013-01-15 06:55:00,
2013-01-15 07:00:00,29.7,27.4,29.81,North,0,0.0,0.0,91,0.00,CLR,,0.00,WeatherDisplay:10.37,2013-01-15 07:00:00,
2013-01-15 07:05:00,29.7,27.4,29.82,North,0,0.0,0.0,91,0.00,CLR,,0.00,WeatherDisplay:10.37,2013-01-15 07:05:00,
2013-01-15 07:10:00,29.7,27.4,29.83,North,0,0.0,0.0,91,0.00,CLR,,0.00,WeatherDisplay:10.37,2013-01-15 07:10:00,
2013-01-15 07:15:00,29.7,27.4,29.83,North,0,0.0,0.0,91,0.00,CLR,,0.00,WeatherDisplay:10.37,2013-01-15 07:15:00,
2013-01-15 07:20:00,29.7,27.4,29.83,North,0,0.0,0.0,91,0.00,CLR,,0.00,WeatherDisplay:10.37,2013-01-15 07:20:00,
2013-01-15 07:25:00,29.7,27.4,29.83,North,0,0.0,0.0,91,0.00,CLR,,0.00,WeatherDisplay:10.37,2013-01-15 07:25:00,
2013-01-15 07:30:00,29.7,27.4,29.83,North,0,0.0,0.0,91,0.00,CLR,,0.00,WeatherDisplay:10.37,2013-01-15 07:30:00,
2013-01-15 07:35:00,29.7,27.4,29.83,North,0,0.0,0.0,91,0.00,CLR,,0.00,WeatherDisplay:10.37,2013-01-15 07:35:00,
2013-01-15 07:40:00,29.5,27.2,29.84,North,0,0.0,0.0,91,0.00,CLR,,0.00,WeatherDisplay:10.37,2013-01-15 07:40:00,
2013-01-15 07:45:00,29.5,27.2,29.84,North,0,0.0,0.0,91,0.00,CLR,,0.00,WeatherDisplay:10.37,2013-01-15 07:45:00,
2013-01-15 07:50:00,29.5,27.2,29.84,North,0,0.0,0.0,91,0.00,CLR,,0.00,WeatherDisplay:10.37,2013-01-15 07:50:00,
2013-01-15 07:55:00,29.7,27.4,29.84,North,0,0.0,0.0,91,0.00,CLR,,0.00,WeatherDisplay:10.37,2013-01-15 07:55:00,
2013-01-15 08:00:00,29.7,27.4,29.85,North,0,0.0,0.0,91,0.00,CLR,,0.00,WeatherDisplay:10.37,2013-01-15 08:00:00,
2013-01-15 08:05:00,29.5,27.2,29.85,North,0,0.0,0.0,91,0.00,CLR,,0.00,WeatherDisplay:10.37,2013-01-15 08:05:00,
2013-01-15 08:10:00,29.5,27.2,29.85,North,0,0.0,0.0,91,0.00,CLR,,0.00,WeatherDisplay:10.37,2013-01-15 08:10:00,
2013-01-15 08:15:00,29.5,27.2,29.85,North,0,0.0,0.0,91,0.00,CLR,,0.00,WeatherDisplay:10.37,2013-01-15 08:15:00,
2013-01-15 08:20:00,29.5,27.2,29.85,North,0,0.0,0.0,91,0.00,CLR,,0.00,WeatherDisplay:10.37,2013-01-15 08:20:00,
2013-01-15 08:25:00,29.7,27.4,29.85,North,0,0.0,0.0,91,0.00,CLR,,0.00,WeatherDisplay:10.37,2013-01-15 08:25:00,
2013-01-15 08:30:00,29.7,27.4,29.85,North,0,0.0,0.0,91,0.00,CLR,,0.00,WeatherDisplay:10.37,2013-01-15 08:30:00,
2013-01-15 08:35:00,29.8,27.5,29.85,North,0,0.0,0.0,91,0.00,CLR,,0.00,WeatherDisplay:10.37,2013-01-15 08:35:00,
2013-01-15 08:40:00,29.8,27.5,29.86,North,0,0.0,0.0,91,0.00,CLR,,0.00,WeatherDisplay:10.37,2013-01-15 08:40:00,
2013-01-15 08:45:00,30.0,27.7,29.86,North,0,0.0,0.0,91,0.00,CLR,,0.00,WeatherDisplay:10.37,2013-01-15 08:45:00,
2013-01-15 08:50:00,29.8,27.5,29.86,North,0,0.0,0.0,91,0.00,CLR,,0.00,WeatherDisplay:10.37,2013-01-15 08:50:00,
2013-01-15 08:55:00,29.8,27.5,29.86,North,0,0.0,0.0,91,0.00,CLR,,0.00,WeatherDisplay:10.37,2013-01-15 08:55:00,
2013-01-15 09:00:00,30.0,27.7,29.86,North,0,0.0,0.0,91,0.00,CLR,,0.00,WeatherDisplay:10.37,2013-01-15 09:00:00,
2013-01-15 09:05:00,30.0,27.7,29.86,North,0,0.0,0.0,91,0.00,CLR,,0.00,WeatherDisplay:10.37,2013-01-15 09:05:00,
2013-01-15 09:10:00,30.0,27.7,29.85,North,0,0.0,0.0,91,0.00,CLR,,0.00,WeatherDisplay:10.37,2013-01-15 09:10:00,
2013-01-15 09:15:00,30.0,28.0,29.86,North,0,0.0,0.0,92,0.00,CLR,,0.00,WeatherDisplay:10.37,2013-01-15 09:15:00,
2013-01-15 09:20:00,30.0,27.7,29.86,North,0,0.0,0.0,91,0.00,CLR,,0.00,WeatherDisplay:10.37,2013-01-15 09:20:00,
2013-01-15 09:25:00,30.2,28.2,29.86,North,0,0.0,0.0,92,0.00,CLR,,0.00,WeatherDisplay:10.37,2013-01-15 09:25:00,
2013-01-15 09:30:00,30.2,28.2,29.87,North,0,0.0,0.0,92,0.00,CLR,,0.00,WeatherDisplay:10.37,2013-01-15 09:30:00,
2013-01-15 09:35:00,30.2,28.2,29.87,North,0,0.0,0.0,92,0.00,CLR,,0.00,WeatherDisplay:10.37,2013-01-15 09:35:00,
2013-01-15 09:40:00,30.4,28.3,29.87,North,0,0.0,0.0,92,0.00,CLR,,0.00,WeatherDisplay:10.37,2013-01-15 09:40:00,
2013-01-15 09:45:00,30.6,28.5,29.87,North,0,0.0,0.0,92,0.00,CLR,,0.00,WeatherDisplay:10.37,2013-01-15 09:45:00,
2013-01-15 09:50:00,30.7,28.7,29.87,North,0,0.0,0.0,92,0.00,CLR,,0.00,WeatherDisplay:10.37,2013-01-15 09:50:00,
2013-01-15 09:55:00,30.7,28.7,29.87,North,0,0.0,0.0,92,0.00,CLR,,0.00,WeatherDisplay:10.37,2013-01-15 09:55:00,
2013-01-15 10:00:00,30.9,28.9,29.87,North,0,0.0,0.0,92,0.00,CLR,,0.00,WeatherDisplay:10.37,2013-01-15 10:00:00,
2013-01-15 10:05:00,31.3,29.2,29.87,North,0,0.0,0.0,92,0.00,CLR,,0.00,WeatherDisplay:10.37,2013-01-15 10:05:00,
2013-01-15 10:10:00,31.6,29.6,29.87,North,0,0.0,0.0,92,0.00,CLR,,0.00,WeatherDisplay:10.37,2013-01-15 10:10:00,
2013-01-15 10:15:00,31.6,29.6,29.87,North,0,0.0,0.0,92,0.00,CLR,,0.00,WeatherDisplay:10.37,2013-01-15 10:15:00,
2013-01-15 10:20:00,32.0,29.9,29.87,North,0,0.0,0.0,92,0.00,CLR,,0.00,WeatherDisplay:10.37,2013-01-15 10:20:00,
2013-01-15 10:25:00,32.2,30.1,29.88,North,0,0.0,0.0,92,0.00,CLR,,0.00,WeatherDisplay:10.37,2013-01-15 10:25:00,
2013-01-15 10:30:00,32.5,30.5,29.88,North,0,0.0,0.0,92,0.00,CLR,,0.00,WeatherDisplay:10.37,2013-01-15 10:30:00,
2013-01-15 10:35:00,32.7,30.7,29.88,North,0,0.0,0.0,92,0.00,CLR,,0.00,WeatherDisplay:10.37,2013-01-15 10:35:00,
2013-01-15 10:40:00,32.7,30.7,29.88,North,0,0.0,0.0,92,0.00,CLR,,0.00,WeatherDisplay:10.37,2013-01-15 10:40:00,
2013-01-15 10:45:00,32.9,30.8,29.88,North,0,0.0,0.0,92,0.00,CLR,,0.00,WeatherDisplay:10.37,2013-01-15 10:45:00,
2013-01-15 10:50:00,32.9,30.8,29.88,North,0,0.0,0.0,92,0.00,CLR,,0.00,WeatherDisplay:10.37,2013-01-15 10:50:00,
2013-01-15 10:55:00,32.9,30.8,29.87,North,0,0.0,0.0,92,0.00,CLR,,0.00,WeatherDisplay:10.37,2013-01-15 10:55:00,
2013-01-15 11:00:00,32.7,30.7,29.88,North,0,0.0,0.0,92,0.00,CLR,,0.00,WeatherDisplay:10.37,2013-01-15 11:00:00,
2013-01-15 11:05:00,32.7,30.7,29.88,North,0,0.0,0.0,92,0.00,CLR,,0.00,WeatherDisplay:10.37,2013-01-15 11:05:00,
2013-01-15 11:10:00,32.7,30.4,29.88,North,0,0.0,0.0,91,0.00,CLR,,0.00,WeatherDisplay:10.37,2013-01-15 11:10:00,
2013-01-15 11:15:00,33.3,30.6,29.88,North,0,0.0,0.0,90,0.00,CLR,,0.00,WeatherDisplay:10.37,2013-01-15 11:15:00,
2013-01-15 11:20:00,33.6,31.0,29.88,North,0,0.0,0.0,90,0.00,CLR,,0.00,WeatherDisplay:10.37,2013-01-15 11:20:00,
2013-01-15 11:25:00,34.0,31.1,29.88,North,0,0.0,0.0,89,0.00,CLR,,0.00,WeatherDisplay:10.37,2013-01-15 11:25:00,
2013-01-15 11:30:00,34.3,31.4,29.88,North,0,0.0,0.0,89,0.00,CLR,,0.00,WeatherDisplay:10.37,2013-01-15 11:30:00,
2013-01-15 11:35:00,34.0,30.8,29.87,North,0,0.0,0.0,88,0.00,CLR,,0.00,WeatherDisplay:10.37,2013-01-15 11:35:00,
2013-01-15 11:40:00,34.7,31.8,29.88,NNW,338,0.0,0.0,89,0.00,CLR,,0.00,WeatherDisplay:10.37,2013-01-15 11:40:00,
2013-01-15 11:45:00,34.9,31.7,29.87,North,0,0.0,0.0,88,0.00,CLR,,0.00,WeatherDisplay:10.37,2013-01-15 11:45:00,
2013-01-15 11:50:00,35.2,31.8,29.87,North,0,0.0,0.0,87,0.00,CLR,,0.00,WeatherDisplay:10.37,2013-01-15 11:50:00,
2013-01-15 11:55:00,35.2,31.5,29.87,North,0,0.0,0.0,86,0.00,CLR,,0.00,WeatherDisplay:10.37,2013-01-15 11:55:00,
2013-01-15 12:00:00,35.8,32.0,29.87,North,0,0.0,0.0,86,0.00,CLR,,0.00,WeatherDisplay:10.37,2013-01-15 12:00:00,
2013-01-15 12:05:00,35.8,32.0,29.86,NNW,338,0.0,0.0,86,0.00,CLR,,0.00,WeatherDisplay:10.37,2013-01-15 12:05:00,
2013-01-15 12:10:00,35.8,31.7,29.87,West,270,0.0,0.0,85,0.00,CLR,,0.00,WeatherDisplay:10.37,2013-01-15 12:10:00,
2013-01-15 12:15:00,35.8,31.7,29.87,East,90,0.0,0.0,85,0.00,CLR,,0.00,WeatherDisplay:10.37,2013-01-15 12:15:00,
2013-01-15 12:20:00,35.8,32.0,29.86,WSW,248,0.0,0.0,86,0.00,CLR,,0.00,WeatherDisplay:10.37,2013-01-15 12:20:00,
2013-01-15 12:25:00,36.1,32.4,29.87,WSW,248,0.0,0.0,86,0.00,CLR,,0.00,WeatherDisplay:10.37,2013-01-15 12:25:00,
2013-01-15 12:30:00,36.3,32.5,29.87,North,0,0.0,0.0,86,0.00,CLR,,0.00,WeatherDisplay:10.37,2013-01-15 12:30:00,
2013-01-15 12:35:00,36.3,32.5,29.87,East,90,0.0,0.0,86,0.00,CLR,,0.00,WeatherDisplay:10.37,2013-01-15 12:35:00,
2013-01-15 12:40:00,36.3,32.5,29.87,NNW,338,0.0,0.0,86,0.00,CLR,,0.00,WeatherDisplay:10.37,2013-01-15 12:40:00,
2013-01-15 12:45:00,36.3,32.5,29.87,NNE,22,0.0,0.0,86,0.00,CLR,,0.00,WeatherDisplay:10.37,2013-01-15 12:45:00,
2013-01-15 12:50:00,36.3,32.5,29.87,NE,45,0.0,0.0,86,0.00,CLR,,0.00,WeatherDisplay:10.37,2013-01-15 12:50:00,
2013-01-15 12:55:00,36.1,32.4,29.86,North,0,0.0,0.0,86,0.00,CLR,,0.00,WeatherDisplay:10.37,2013-01-15 12:55:00,
2013-01-15 13:00:00,35.8,32.0,29.86,SE,135,0.0,0.0,86,0.00,CLR,,0.00,WeatherDisplay:10.37,2013-01-15 13:00:00,
2013-01-15 13:05:00,35.4,31.6,29.86,SE,135,0.0,0.0,86,0.00,FEW,,0.00,WeatherDisplay:10.37,2013-01-15 13:05:00,
2013-01-15 13:10:00,35.8,32.0,29.86,NNW,338,0.0,0.0,86,0.00,FEW,,0.00,WeatherDisplay:10.37,2013-01-15 13:10:00,
2013-01-15 13:15:00,36.0,31.9,29.86,WNW,292,0.0,0.0,85,0.00,FEW,,0.00,WeatherDisplay:10.37,2013-01-15 13:15:00,
2013-01-15 13:20:00,36.1,32.1,29.85,ENE,68,0.0,0.0,85,0.00,FEW,,0.00,WeatherDisplay:10.37,2013-01-15 13:20:00,
2013-01-15 13:25:00,36.1,31.8,29.85,NNW,338,0.0,0.0,84,0.00,FEW,,0.00,WeatherDisplay:10.37,2013-01-15 13:25:00,
2013-01-15 13:30:00,35.8,31.4,29.86,NE,45,0.0,0.0,84,0.00,FEW,,0.00,WeatherDisplay:10.37,2013-01-15 13:30:00,
2013-01-15 13:35:00,35.8,31.7,29.85,North,0,0.0,0.0,85,0.00,FEW,,0.00,WeatherDisplay:10.37,2013-01-15 13:35:00,
2013-01-15 13:40:00,36.0,31.6,29.85,NNW,338,0.0,0.0,84,0.00,FEW,,0.00,WeatherDisplay:10.37,2013-01-15 13:40:00,
2013-01-15 13:45:00,35.8,31.7,29.85,SW,225,0.0,0.0,85,0.00,FEW,,0.00,WeatherDisplay:10.37,2013-01-15 13:45:00,
2013-01-15 13:50:00,36.1,31.8,29.85,West,270,0.0,0.0,84,0.00,FEW,,0.00,WeatherDisplay:10.37,2013-01-15 13:50:00,
2013-01-15 13:55:00,36.3,31.9,29.85,NNE,22,0.0,0.0,84,0.00,FEW,,0.00,WeatherDisplay:10.37,2013-01-15 13:55:00,
2013-01-15 14:00:00,36.1,31.5,29.85,NNW,338,0.0,0.0,83,0.00,FEW,,0.00,WeatherDisplay:10.37,2013-01-15 14:00:00,
2013-01-15 14:05:00,36.3,31.7,29.84,NNW,338,0.0,0.0,83,0.00,SCT,,0.00,WeatherDisplay:10.37,2013-01-15 14:05:00,
2013-01-15 14:10:00,36.3,31.4,29.84,NNW,338,0.0,0.0,82,0.00,SCT,,0.00,WeatherDisplay:10.37,2013-01-15 14:10:00,
2013-01-15 14:15:00,36.3,31.4,29.84,WNW,292,0.0,0.0,82,0.00,SCT,,0.00,WeatherDisplay:10.37,2013-01-15 14:15:00,
2013-01-15 14:20:00,36.3,31.4,29.84,NNE,22,0.0,0.0,82,0.00,SCT,,0.00,WeatherDisplay:10.37,2013-01-15 14:20:00,
2013-01-15 14:25:00,36.1,31.2,29.84,North,0,0.0,0.0,82,0.00,SCT,,0.00,WeatherDisplay:10.37,2013-01-15 14:25:00,
2013-01-15 14:30:00,36.1,31.2,29.84,NNE,22,0.0,0.0,82,0.00,SCT,,0.00,WeatherDisplay:10.37,2013-01-15 14:30:00,
2013-01-15 14:35:00,36.1,31.5,29.84,West,270,0.0,0.0,83,0.00,SCT,,0.00,WeatherDisplay:10.37,2013-01-15 14:35:00,
2013-01-15 14:40:00,36.1,31.5,29.84,NNE,22,0.0,0.0,83,0.00,SCT,,0.00,WeatherDisplay:10.37,2013-01-15 14:40:00,
2013-01-15 14:45:00,36.3,31.7,29.84,WNW,292,0.0,0.0,83,0.00,SCT,,0.00,WeatherDisplay:10.37,2013-01-15 14:45:00,
2013-01-15 14:50:00,36.3,31.7,29.84,NE,45,0.0,0.0,83,0.00,SCT,,0.00,WeatherDisplay:10.37,2013-01-15 14:50:00,
2013-01-15 14:55:00,36.1,31.5,29.84,NNE,22,0.0,0.0,83,0.00,SCT,,0.00,WeatherDisplay:10.37,2013-01-15 14:55:00,
2013-01-15 15:00:00,36.1,31.5,29.84,North,0,0.0,0.0,83,0.00,SCT,,0.00,WeatherDisplay:10.37,2013-01-15 15:00:00,
2013-01-15 15:05:00,36.1,31.5,29.84,NE,45,0.0,0.0,83,0.00,SCT,,0.00,WeatherDisplay:10.37,2013-01-15 15:05:00,
2013-01-15 15:10:00,36.0,31.3,29.85,East,90,0.0,0.0,83,0.00,SCT,,0.00,WeatherDisplay:10.37,2013-01-15 15:10:00,
2013-01-15 15:15:00,36.0,31.3,29.84,North,0,0.0,0.0,83,0.00,SCT,,0.00,WeatherDisplay:10.37,2013-01-15 15:15:00,
2013-01-15 15:20:00,35.8,31.1,29.85,NNE,22,0.0,0.0,83,0.00,SCT,,0.00,WeatherDisplay:10.37,2013-01-15 15:20:00,
2013-01-15 15:25:00,35.8,31.1,29.85,North,0,0.0,0.0,83,0.00,SCT,,0.00,WeatherDisplay:10.37,2013-01-15 15:25:00,
2013-01-15 15:30:00,35.8,31.1,29.85,NNE,22,0.0,0.0,83,0.00,SCT,,0.00,WeatherDisplay:10.37,2013-01-15 15:30:00,
2013-01-15 15:35:00,35.4,30.8,29.85,NNE,22,0.0,0.0,83,0.00,FEW,,0.00,WeatherDisplay:10.37,2013-01-15 15:35:00,
2013-01-15 15:40:00,35.4,30.8,29.85,NE,45,0.0,0.0,83,0.00,FEW,,0.00,WeatherDisplay:10.37,2013-01-15 15:40:00,
2013-01-15 15:45:00,35.2,30.6,29.86,North,0,0.0,0.0,83,0.00,FEW,,0.00,WeatherDisplay:10.37,2013-01-15 15:45:00,
2013-01-15 15:50:00,34.9,30.2,29.86,NNE,22,0.0,0.0,83,0.00,FEW,,0.00,WeatherDisplay:10.37,2013-01-15 15:50:00,
2013-01-15 15:55:00,34.9,30.2,29.86,NNE,22,0.0,0.0,83,0.00,FEW,,0.00,WeatherDisplay:10.37,2013-01-15 15:55:00,
2013-01-15 16:00:00,34.7,30.1,29.86,NNE,22,0.0,0.0,83,0.00,FEW,,0.00,WeatherDisplay:10.37,2013-01-15 16:00:00,
2013-01-15 16:05:00,34.5,30.2,29.86,NE,45,0.0,0.0,84,0.00,SCT,,0.00,WeatherDisplay:10.37,2013-01-15 16:05:00,
2013-01-15 16:10:00,34.5,30.2,29.86,NNE,22,0.0,0.0,84,0.00,SCT,,0.00,WeatherDisplay:10.37,2013-01-15 16:10:00,
2013-01-15 16:15:00,34.3,30.0,29.87,WNW,292,0.0,0.0,84,0.00,SCT,,0.00,WeatherDisplay:10.37,2013-01-15 16:15:00,
2013-01-15 16:20:00,34.2,29.8,29.86,WNW,292,0.0,0.0,84,0.00,SCT,,0.00,WeatherDisplay:10.37,2013-01-15 16:20:00,
2013-01-15 16:25:00,34.0,29.7,29.86,WNW,292,0.0,0.0,84,0.00,SCT,,0.00,WeatherDisplay:10.37,2013-01-15 16:25:00,
2013-01-15 16:30:00,33.6,29.6,29.86,WNW,292,0.0,0.0,85,0.00,SCT,,0.00,WeatherDisplay:10.37,2013-01-15 16:30:00,
2013-01-15 16:35:00,33.4,29.4,29.86,WNW,292,0.0,0.0,85,0.00,FEW,,0.00,WeatherDisplay:10.37,2013-01-15 16:35:00,
2013-01-15 16:40:00,33.1,29.1,29.86,WNW,292,0.0,0.0,85,0.00,FEW,,0.00,WeatherDisplay:10.37,2013-01-15 16:40:00,
2013-01-15 16:45:00,32.7,28.7,29.86,WNW,292,0.0,0.0,85,0.00,FEW,,0.00,WeatherDisplay:10.37,2013-01-15 16:45:00,
2013-01-15 16:50:00,32.5,28.5,29.87,WNW,292,0.0,0.0,85,0.00,FEW,,0.00,WeatherDisplay:10.37,2013-01-15 16:50:00,
2013-01-15 16:55:00,32.2,28.2,29.86,WNW,292,0.0,0.0,85,0.00,FEW,,0.00,WeatherDisplay:10.37,2013-01-15 16:55:00,
2013-01-15 17:00:00,31.8,28.1,29.87,WNW,292,0.0,0.0,86,0.00,FEW,,0.00,WeatherDisplay:10.37,2013-01-15 17:00:00,
2013-01-15 17:05:00,31.8,28.1,29.87,WNW,292,0.0,0.0,86,0.00,FEW,,0.00,WeatherDisplay:10.37,2013-01-15 17:05:00,
2013-01-15 17:10:00,31.6,27.9,29.87,WNW,292,0.0,0.0,86,0.00,FEW,,0.00,WeatherDisplay:10.37,2013-01-15 17:10:00,
2013-01-15 17:15:00,31.3,27.6,29.87,WNW,292,0.0,0.0,86,0.00,FEW,,0.00,WeatherDisplay:10.37,2013-01-15 17:15:00,
2013-01-15 17:20:00,31.1,27.4,29.87,WNW,292,0.0,0.0,86,0.00,FEW,,0.00,WeatherDisplay:10.37,2013-01-15 17:20:00,
2013-01-15 17:25:00,31.1,27.4,29.86,WNW,292,0.0,0.0,86,0.00,FEW,,0.00,WeatherDisplay:10.37,2013-01-15 17:25:00,
2013-01-15 17:30:00,31.1,27.7,29.86,WNW,292,0.0,0.0,87,0.00,FEW,,0.00,WeatherDisplay:10.37,2013-01-15 17:30:00,
2013-01-15 17:35:00,30.9,27.5,29.87,WNW,292,0.0,0.0,87,0.00,BKN,,0.00,WeatherDisplay:10.37,2013-01-15 17:35:00,
2013-01-15 17:40:00,30.9,27.5,29.86,WNW,292,0.0,0.0,87,0.00,BKN,,0.00,WeatherDisplay:10.37,2013-01-15 17:40:00,
2013-01-15 17:45:00,30.6,27.2,29.87,WNW,292,0.0,0.0,87,0.00,BKN,,0.00,WeatherDisplay:10.37,2013-01-15 17:45:00,
2013-01-15 17:50:00,30.6,27.4,29.86,WNW,292,0.0,0.0,88,0.00,BKN,,0.00,WeatherDisplay:10.37,2013-01-15 17:50:00,
2013-01-15 17:55:00,30.4,27.3,29.86,WNW,292,0.0,0.0,88,0.00,BKN,,0.00,WeatherDisplay:10.37,2013-01-15 17:55:00,
2013-01-15 18:00:00,30.2,27.1,29.86,WNW,292,0.0,0.0,88,0.00,BKN,,0.00,WeatherDisplay:10.37,2013-01-15 18:00:00,
2013-01-15 18:05:00,30.2,27.1,29.86,WNW,292,0.0,0.0,88,0.00,BKN,,0.00,WeatherDisplay:10.37,2013-01-15 18:05:00,
2013-01-15 18:10:00,30.0,26.9,29.86,WNW,292,0.0,0.0,88,0.00,BKN,,0.00,WeatherDisplay:10.37,2013-01-15 18:10:00,
2013-01-15 18:15:00,30.0,26.9,29.87,WNW,292,0.0,0.0,88,0.00,BKN,,0.00,WeatherDisplay:10.37,2013-01-15 18:15:00,
2013-01-15 18:20:00,30.0,26.9,29.86,WNW,292,0.0,0.0,88,0.00,BKN,,0.00,WeatherDisplay:10.37,2013-01-15 18:20:00,
2013-01-15 18:25:00,30.0,27.2,29.87,WNW,292,0.0,0.0,89,0.00,BKN,,0.00,WeatherDisplay:10.37,2013-01-15 18:25:00,
2013-01-15 18:30:00,29.8,27.0,29.87,WNW,292,0.0,0.0,89,0.00,BKN,,0.00,WeatherDisplay:10.37,2013-01-15 18:30:00,
2013-01-15 18:35:00,29.7,26.8,29.87,WNW,292,0.0,0.0,89,0.00,SCT,,0.00,WeatherDisplay:10.37,2013-01-15 18:35:00,
2013-01-15 18:40:00,29.5,26.6,29.87,WNW,292,0.0,0.0,89,0.00,SCT,,0.00,WeatherDisplay:10.37,2013-01-15 18:40:00,
2013-01-15 18:45:00,29.3,26.5,29.86,WNW,292,0.0,0.0,89,0.00,SCT,,0.00,WeatherDisplay:10.37,2013-01-15 18:45:00,
2013-01-15 18:50:00,29.3,26.5,29.87,WNW,292,0.0,0.0,89,0.00,SCT,,0.00,WeatherDisplay:10.37,2013-01-15 18:50:00,
2013-01-15 18:55:00,29.1,26.3,29.87,WNW,292,0.0,0.0,89,0.00,SCT,,0.00,WeatherDisplay:10.37,2013-01-15 18:55:00,
2013-01-15 19:00:00,29.1,26.3,29.87,WNW,292,0.0,0.0,89,0.00,SCT,,0.00,WeatherDisplay:10.37,2013-01-15 19:00:00,
2013-01-15 19:05:00,29.1,26.3,29.86,WNW,292,0.0,0.0,89,0.00,FEW,,0.00,WeatherDisplay:10.37,2013-01-15 19:05:00,
2013-01-15 19:10:00,29.1,26.3,29.86,WNW,292,0.0,0.0,89,0.00,FEW,,0.00,WeatherDisplay:10.37,2013-01-15 19:10:00,
2013-01-15 19:15:00,29.1,26.3,29.87,WNW,292,0.0,0.0,89,0.00,FEW,,0.00,WeatherDisplay:10.37,2013-01-15 19:15:00,
2013-01-15 19:20:00,29.1,26.3,29.87,WNW,292,0.0,0.0,89,0.00,FEW,,0.00,WeatherDisplay:10.37,2013-01-15 19:20:00,
2013-01-15 19:25:00,28.9,26.1,29.87,WNW,292,0.0,0.0,89,0.00,FEW,,0.00,WeatherDisplay:10.37,2013-01-15 19:25:00,
2013-01-15 19:30:00,28.9,26.4,29.87,WNW,292,0.0,0.0,90,0.00,FEW,,0.00,WeatherDisplay:10.37,2013-01-15 19:30:00,
2013-01-15 19:35:00,28.9,26.4,29.87,WNW,292,0.0,0.0,90,0.00,FEW,,0.00,WeatherDisplay:10.37,2013-01-15 19:35:00,
2013-01-15 19:40:00,29.1,26.6,29.86,WNW,292,0.0,0.0,90,0.00,FEW,,0.00,WeatherDisplay:10.37,2013-01-15 19:40:00,
2013-01-15 19:45:00,29.3,26.7,29.86,WNW,292,0.0,0.0,90,0.00,FEW,,0.00,WeatherDisplay:10.37,2013-01-15 19:45:00,
2013-01-15 19:50:00,29.3,26.7,29.86,WNW,292,0.0,0.0,90,0.00,FEW,,0.00,WeatherDisplay:10.37,2013-01-15 19:50:00,
2013-01-15 19:55:00,29.1,26.6,29.87,WNW,292,0.0,0.0,90,0.00,FEW,,0.00,WeatherDisplay:10.37,2013-01-15 19:55:00,
2013-01-15 20:00:00,28.9,26.4,29.86,WNW,292,0.0,0.0,90,0.00,FEW,,0.00,WeatherDisplay:10.37,2013-01-15 20:00:00,
2013-01-15 20:05:00,28.9,26.4,29.87,WNW,292,0.0,0.0,90,0.00,CLR,,0.00,WeatherDisplay:10.37,2013-01-15 20:05:00,
2013-01-15 20:10:00,28.8,26.2,29.87,WNW,292,0.0,0.0,90,0.00,CLR,,0.00,WeatherDisplay:10.37,2013-01-15 20:10:00,
2013-01-15 20:15:00,28.6,26.0,29.87,WNW,292,0.0,0.0,90,0.00,CLR,,0.00,WeatherDisplay:10.37,2013-01-15 20:15:00,
2013-01-15 20:20:00,28.6,26.0,29.87,WNW,292,0.0,0.0,90,0.00,CLR,,0.00,WeatherDisplay:10.37,2013-01-15 20:20:00,
2013-01-15 20:26:00,28.2,25.7,29.87,WNW,292,0.0,0.0,90,0.00,CLR,,0.00,WeatherDisplay:10.37,2013-01-15 20:26:00,
2013-01-15 20:31:00,28.0,25.8,29.87,WNW,292,0.0,0.0,91,0.00,CLR,,0.00,WeatherDisplay:10.37,2013-01-15 20:31:00,
2013-01-15 20:36:00,28.0,25.8,29.87,WNW,292,0.0,0.0,91,0.00,CLR,,0.00,WeatherDisplay:10.37,2013-01-15 20:36:00,
2013-01-15 20:41:00,27.7,25.1,29.87,WNW,292,0.0,0.0,90,0.00,CLR,,0.00,WeatherDisplay:10.37,2013-01-15 20:41:00,
2013-01-15 20:46:00,27.5,25.0,29.87,WNW,292,0.0,0.0,90,0.00,CLR,,0.00,WeatherDisplay:10.37,2013-01-15 20:46:00,
2013-01-15 20:51:00,27.3,24.8,29.87,WNW,292,0.0,0.0,90,0.00,CLR,,0.00,WeatherDisplay:10.37,2013-01-15 20:51:00,
2013-01-15 20:56:00,27.3,24.8,29.86,WNW,292,0.0,0.0,90,0.00,CLR,,0.00,WeatherDisplay:10.37,2013-01-15 20:56:00,
2013-01-15 21:01:00,27.5,25.0,29.87,WNW,292,0.0,0.0,90,0.00,CLR,,0.00,WeatherDisplay:10.37,2013-01-15 21:01:00,
2013-01-15 21:06:00,27.5,25.0,29.87,WNW,292,0.0,0.0,90,0.00,CLR,,0.00,WeatherDisplay:10.37,2013-01-15 21:06:00,
2013-01-15 21:11:00,27.3,24.8,29.87,WNW,292,0.0,0.0,90,0.00,CLR,,0.00,WeatherDisplay:10.37,2013-01-15 21:11:00,
2013-01-15 21:16:00,27.5,25.0,29.86,WNW,292,0.0,0.0,90,0.00,CLR,,0.00,WeatherDisplay:10.37,2013-01-15 21:16:00,
2013-01-15 21:21:00,27.5,25.0,29.86,WNW,292,0.0,0.0,90,0.00,CLR,,0.00,WeatherDisplay:10.37,2013-01-15 21:21:00,
2013-01-15 21:26:00,27.5,25.0,29.86,WNW,292,0.0,0.0,90,0.00,CLR,,0.00,WeatherDisplay:10.37,2013-01-15 21:26:00,
2013-01-15 21:31:00,27.3,25.0,29.86,WNW,292,0.0,0.0,91,0.00,CLR,,0.00,WeatherDisplay:10.37,2013-01-15 21:31:00,
2013-01-15 21:36:00,27.3,25.0,29.86,WNW,292,0.0,0.0,91,0.00,CLR,,0.00,WeatherDisplay:10.37,2013-01-15 21:36:00,
2013-01-15 21:41:00,27.1,24.9,29.86,WNW,292,0.0,0.0,91,0.00,CLR,,0.00,WeatherDisplay:10.37,2013-01-15 21:41:00,
2013-01-15 21:46:00,27.1,24.9,29.86,WNW,292,0.0,0.0,91,0.00,CLR,,0.00,WeatherDisplay:10.37,2013-01-15 21:46:00,
2013-01-15 21:51:00,27.1,24.9,29.85,WNW,292,0.0,0.0,91,0.00,CLR,,0.00,WeatherDisplay:10.37,2013-01-15 21:51:00,
2013-01-15 21:56:00,27.3,25.0,29.85,WNW,292,0.0,0.0,91,0.00,CLR,,0.00,WeatherDisplay:10.37,2013-01-15 21:56:00,
2013-01-15 22:01:00,27.3,25.0,29.85,WNW,292,0.0,0.0,91,0.00,CLR,,0.00,WeatherDisplay:10.37,2013-01-15 22:01:00,
2013-01-15 22:06:00,27.7,25.4,29.86,WNW,292,0.0,0.0,91,0.00,CLR,,0.00,WeatherDisplay:10.37,2013-01-15 22:06:00,
2013-01-15 22:11:00,28.0,25.8,29.85,WNW,292,0.0,0.0,91,0.00,CLR,,0.00,WeatherDisplay:10.37,2013-01-15 22:11:00,
2013-01-15 22:16:00,27.9,25.6,29.86,WNW,292,0.0,0.0,91,0.00,CLR,,0.00,WeatherDisplay:10.37,2013-01-15 22:16:00,
2013-01-15 22:21:00,27.7,25.4,29.85,WNW,292,0.0,0.0,91,0.00,CLR,,0.00,WeatherDisplay:10.37,2013-01-15 22:21:00,
2013-01-15 22:26:00,27.5,25.2,29.86,WNW,292,0.0,0.0,91,0.00,CLR,,0.00,WeatherDisplay:10.37,2013-01-15 22:26:00,
2013-01-15 22:31:00,27.5,25.2,29.86,WNW,292,0.0,0.0,91,0.00,CLR,,0.00,WeatherDisplay:10.37,2013-01-15 22:31:00,
2013-01-15 22:36:00,27.3,25.0,29.86,WNW,292,0.0,0.0,91,0.00,CLR,,0.00,WeatherDisplay:10.37,2013-01-15 22:36:00,
2013-01-15 22:41:00,27.1,24.9,29.86,WNW,292,0.0,0.0,91,0.00,CLR,,0.00,WeatherDisplay:10.37,2013-01-15 22:41:00,
2013-01-15 22:46:00,27.1,24.9,29.86,WNW,292,0.0,0.0,91,0.00,CLR,,0.00,WeatherDisplay:10.37,2013-01-15 22:46:00,
2013-01-15 22:51:00,27.1,24.9,29.86,WNW,292,0.0,0.0,91,0.00,CLR,,0.00,WeatherDisplay:10.37,2013-01-15 22:51:00,
2013-01-15 22:56:00,27.3,25.0,29.85,WNW,292,0.0,0.0,91,0.00,CLR,,0.00,WeatherDisplay:10.37,2013-01-15 22:56:00,
2013-01-15 23:01:00,27.3,25.0,29.86,WNW,292,0.0,0.0,91,0.00,CLR,,0.00,WeatherDisplay:10.37,2013-01-15 23:01:00,
2013-01-15 23:06:00,27.3,25.0,29.86,WNW,292,0.0,0.0,91,0.00,CLR,,0.00,WeatherDisplay:10.37,2013-01-15 23:06:00,
2013-01-15 23:11:00,27.3,25.0,29.86,WNW,292,0.0,0.0,91,0.00,CLR,,0.00,WeatherDisplay:10.37,2013-01-15 23:11:00,
2013-01-15 23:16:00,27.1,24.9,29.86,WNW,292,0.0,0.0,91,0.00,CLR,,0.00,WeatherDisplay:10.37,2013-01-15 23:16:00,
2013-01-15 23:21:00,27.1,24.9,29.86,WNW,292,0.0,0.0,91,0.00,CLR,,0.00,WeatherDisplay:10.37,2013-01-15 23:21:00,
2013-01-15 23:26:00,27.1,24.9,29.86,WNW,292,0.0,0.0,91,0.00,CLR,,0.00,WeatherDisplay:10.37,2013-01-15 23:26:00,
2013-01-15 23:31:00,27.1,25.1,29.86,WNW,292,0.0,0.0,92,0.00,CLR,,0.00,WeatherDisplay:10.37,2013-01-15 23:31:00,
2013-01-15 23:36:00,27.1,25.1,29.85,WNW,292,0.0,0.0,92,0.00,CLR,,0.00,WeatherDisplay:10.37,2013-01-15 23:36:00,
2013-01-15 23:41:00,27.1,25.1,29.85,WNW,292,0.0,0.0,92,0.00,CLR,,0.00,WeatherDisplay:10.37,2013-01-15 23:41:00,
2013-01-15 23:46:00,27.1,25.1,29.85,WNW,292,0.0,0.0,92,0.00,CLR,,0.00,WeatherDisplay:10.37,2013-01-15 23:46:00,
2013-01-15 23:51:00,27.1,25.1,29.85,WNW,292,0.0,0.0,92,0.00,CLR,,0.00,WeatherDisplay:10.37,2013-01-15 23:51:00,
2013-01-15 23:56:00,27.3,25.3,29.85,WNW,292,0.0,0.0,92,0.00,CLR,,0.00,WeatherDisplay:10.37,2013-01-15 23:56:00,